AirNav   Air Wisconsin Up To $57,000 Bonus
 
 1200 users online  

2MU0 St Genevieve County Memorial Hospital Heliport
St Genevieve, Missouri, USA

GOING TO ST GENEVIEVE?


FAA INFORMATION EFFECTIVE 15 JULY 2021

Location

FAA Identifier: 2MU0
Lat/Long: 37-58-06.6900N 090-03-15.9060W
37-58.111500N 090-03.265100W
37.9685250,-90.0544183
(estimated)
Elevation: 424 ft. / 129 m (estimated)
Variation: 01E (1995)
Time zone: UTC -5 (UTC -6 during Standard Time)
Zip code: 63670

Heliport Operations

Heliport use: Private use, MEDICAL USE.
Activation date: 08/1997
Control tower: no
ARTCC: KANSAS CITY CENTER
FSS: COLUMBIA FLIGHT SERVICE STATION
Attendance: UNATNDD
Wind indicator: yes
Segmented circle: yes
Lights: FOR PERIMETER LGTS CALL 573-883-2751.

Heliport Communications

WX AWOS-3PT at PCD (11 nm SE): 118.95 (573-543-5390)
WX AWOS-3 at SAR (20 nm NE): 118.375 (618-443-3296)

Nearby radio navigation aids

VOR radial/distance  VOR name  Freq  Var
FAMr025/19.6FARMINGTON VORTAC115.7001E

Heliport Services

Runway Information

Helipad H1

Dimensions: 45 x 41 ft. / 14 x 12 m
Surface: concrete
Runway edge lights: PERI
Latitude: 37-58.111500N
Longitude: 090-03.265100W
Elevation: 424.0 ft.
Traffic pattern: leftleft

Heliport Ownership and Management from official FAA records

Ownership: Privately-owned
Owner: ST GENEVIEVE COUNTY MEM HOS
HWY 61 & 32
ST GENEVIEVE, MO 63670
Phone 573-883-2751
Manager: ST GENEVIEVE COUNTY MEM HOS
HWY 61 & 32, ATTN: KEVIN SCHWEISS
ST GENEVIEVE, MO 63670
Phone 573-883-2751
ADDITIONAL CONTACT: LAURA BAILEY, 573-883-4429, LBAILEY@SGCMH.ORG

Additional Remarks

FOR CD CTC KANSAS CITY ARTCC AT 913-254-8508.

Instrument Procedures

There are no published instrument procedures at 2MU0.

Some nearby airports with instrument procedures:

KPCD - Perryville Regional Airport (11 nm SE)
KSAR - Sparta Community Airport-Hunter Field (20 nm NE)
KFES - Festus Memorial Airport (21 nm NW)
KFAM - Farmington Regional Airport (22 nm SW)
H88 - A Paul Vance Fredericktown Regional Airport (24 nm SW)
 
Loc | Ops | Rwys | IFR | FBO | Links
Com | Nav | Svcs | Stats | Notes
Area around 2MU0 (St Genevieve County Memorial Hospital Heliport)
 
Road maps at: MapQuest Bing Google
 
Aerial photo
No photo
 
Sectional chart

 
Airport distance calculator
Flying to St Genevieve County Memorial Hospital Heliport? Find the distance to fly.

From to 2MU0

Sunrise and sunset
Times for 31-Jul-2021
 Local
(UTC-5)
 Zulu
(UTC)
Morning civil twilight05:3410:34
Sunrise06:0311:03
Sunset20:1001:10
Evening civil twilight20:3901:39

Current date and time
Zulu (UTC)  31-Jul-2021 19:37:08
Local (UTC-5)  31-Jul-2021 14:37:08
 
METAR
KPCD 
11nm SE 
311915Z AUTO 22003KT 10SM CLR 26/23 A2995 RMK AO2 T02640229
KSAR 
20nm NE 
311915Z AUTO 16004KT 10SM CLR 25/23 A2997 RMK AO2 T02490227
KFAM 
21nm SW 
311856Z AUTO 19005KT 10SM CLR 25/24 A3000 RMK AO2 SLP159 P0001 T02500239
TAF
KBLV 
35nm N 
311735Z 3117/0122 VRB06KT 9999 SCT020 OVC050 QNH2998INS TEMPO 3117/3119 9000 -SHRA BECMG 3118/3119 04006KT 9999 BKN020 OVC030 QNH2995INS BECMG 0105/0106 01006KT 9999 SCT020 QNH2997INS BECMG 0120/0121 33010G15KT 9999 SCT050 QNH3000INS TX23/3121Z TN18/0110Z
KCPS 
36nm N 
311721Z 3118/0118 VRB04KT P6SM VCSH FEW025 BKN070 FM311900 12005KT P6SM OVC015 FM010100 01005KT P6SM BKN019 FM010800 03004KT P6SM BKN040
NOTAMs
Click for the latest NOTAMs
NOTAMs are issued by the DoD/FAA and will open in a separate window not controlled by AirNav.

 

 
 

Would you like to see your business listed on this page?

 If your business provides an interesting product or service to pilots, flight crews, aircraft, or users of the St Genevieve County Memorial Hospital Heliport, you should consider listing it here.  To start the listing process, click on the button below
 
Add a business
 

Other Pages about St Genevieve County Memorial Hospital Heliport

Update a link
 
Copyright © AirNav, LLC. All rights reserved. Privacy Policy  Contact